Location: Unspecified
(0.0000°N, 0.0000°E)
Time: 23:43:35
(UTC+00:00)

deb Explorer IX - Pass Details

Date: 22 December 2018
Orbit: 538 x 1115 km, 38.8° (Epoch: 17 January)

Event Time Altitude Azimuth Distance (km) Brightness Sun altitude
Rises 11:35:19 0° 228° (SW) 3,905 ? 65.9°
Reaches altitude 10° 11:38:11 10° 228° (SW) 2,908 ? 66.0°
Maximum altitude 11:45:20 88° 138° (SE) 995 ? 66.3°
Drops below altitude 10° 11:51:34 10° 49° (NE) 2,551 ? 66.5°
Sets 11:53:56 0° 49° (NE) 3,402 ? 66.5°
